Regional Weather Roundup
Issued by NWS

Home | Current Version | Previous Version | Graphics & Text | Print | Product List | Glossary On
Versions: 1 2 3 4 5 6 7 8 9 10 11 12 13 14 15 16 17 18 19 20 21 22 23 24 25 26 27 28 29 30 31 32 33 34 35 36 37 38 39 40 41 42 43 44 45 46 47 48 49 50
000
ASUS44 KMEG 280100
RWRTN
TENNESSEE HOURLY STATE WEATHER ROUNDUP
NATIONAL WEATHER SERVICE MEMPHIS TN
800 PM CDT THU AUG 27 2015

TNZ002-004-019-021-049-052-054-088>092-280200-
WEST TENNESSEE

CITY           SKY/WX    TMP DP  RH WIND       PRES   REMARKS
MEMPHIS INTL   PTCLDY    75  57  53 N7        30.05R
NWS MEMPHIS      N/A     71 N/A N/A MISG        N/A
JACKSON        CLEAR     68  60  75 CALM      30.06S
DYERSBURG      CLEAR    N/A N/A N/A MISG        N/A
UNION CITY     CLEAR     66  63  88 CALM      30.07R
PARIS          CLEAR     64  57  77 CALM      30.09S
LEXINGTON      CLEAR     66  61  82 CALM      30.06S
$$

TNZ008-025-027-028-033-062-065-066-280200-
NORTH MIDDLE TENNESSEE

CITY           SKY/WX    TMP DP  RH WIND       PRES   REMARKS
NASHVILLE      PTCLDY    73  54  51 NE8       30.08S
CLARKSVILLE    CLEAR     71  57  61 NE5       30.08S
COOKEVILLE     CLEAR     70  61  73 NE3       30.10S
CROSSVILLE     CLEAR     70  58  65 N7        30.14R
$$

TNZ061-075-076-078-094-096-097-280200-
SOUTH MIDDLE TENNESSEE

CITY           SKY/WX    TMP DP  RH WIND       PRES   REMARKS
FAYETTEVILLE     N/A     72  61  68 CALM      30.07S
TULLAHOMA      CLEAR     70  61  73 NE3       30.10R
WINCHESTER     CLEAR     72  64  78 N5        30.08R
MCMINNVILLE    CLEAR     72  63  73 N5        30.10R
COLUMBIA       CLEAR     70  61  73 CALM      30.05F
SHELBYVILLE    CLEAR     72  63  73 CALM      30.08S
$$

TNZ017-018-042-046-047-280200-
NORTHEAST TENNESSEE

CITY           SKY/WX    TMP DP  RH WIND       PRES   REMARKS
TRI CITIES     MOCLDY    71  60  68 N3        30.11R
ELIZABETHTON   CLOUDY    66  63  88 CALM      30.12R
$$

TNZ012-013-036-069-073-074-280200-
CENTRAL EAST TENNESSEE

CITY           SKY/WX    TMP DP  RH WIND       PRES   REMARKS
KNOXVILLE      PTCLDY    74  60  61 N5        30.07R
OAK RIDGE      PTCLDY    74  61  63 CALM      30.10R
GATLINBURG     CLOUDY    73  59  60 CALM      30.08R
$$

TNZ083-085-099-280200-
SOUTHEAST TENNESSEE

CITY           SKY/WX    TMP DP  RH WIND       PRES   REMARKS
CHATTANOOGA    PTCLDY    78  62  57 NE5       30.06R
$$

SKY/WX REPORTED AS FAIR MEANS FEW OR NO CLOUDS BELOW
12 THOUSAND FEET.



USA.gov is the U.S. government's official web portal to all federal, state and local government web resources and services.